Fargo, ND

5:01 PM CDT on March 26, 2017 (GMT -0500)
Hector International

Weather History for KFAR - January, 2012

Change the Weather History Date:

Sunday, January 15, 2012

  Actual Average Record
Temperature  
Mean Temperature 29 °F 9 °F  
Max Temperature 36 °F 18 °F 40 °F (1942)
Min Temperature 21 °F 0 °F -36 °F (1888)
Degree Days  
Heating Degree Days 36 56  
Month to date heating degree days 592 836  
Since 1 July heating degree days 3362 4376  
Cooling Degree Days 0 0  
Month to date cooling degree days 0 0  
Year to date cooling degree days 0 0  
Moisture  
Dew Point 19 °F    
Average Humidity 72    
Maximum Humidity 84    
Minimum Humidity 59    
Precipitation  
Precipitation 0.00 in 0.02 in 0.48 in (1889)
Month to date precipitation 0.17 0.37  
Year to date precipitation 0.17 0.37  
Snow  
Snow 0.00 in 0.30 in 4.00 in (1920)
Month to date snowfall 1.1 5.9  
Since 1 July snowfall 5.0 25.7  
Snow Depth 0.00 in    
Sea Level Pressure  
Sea Level Pressure 29.78 in    
Wind  
Wind Speed 14 mph (South)    
Max Wind Speed 28 mph    
Max Gust Speed 38 mph    
Visibility 10 miles    
Events      
T = Trace of Precipitation, MM = Missing Value Source: NWS Daily Summary

Daily Weather History Graph

Daily Weather History Graph

Search for Another Location

Airport or City:

Trip Planner

Search our weather history database for the weather conditions in past years. The results will help you decide how hot, cold, wet, or windy it might be!

Date:

Astronomy

Jan. 15, 2012 Rise Set
Actual Time 8:08 AM CST 5:04 PM CST
Civil Twilight 7:34 AM CST 5:39 PM CST
Nautical Twilight 6:56 AM CST 6:16 PM CST
Astronomical Twilight 6:20 AM CST 6:53 PM CST
Moon No Moon Rise 10:55 AM CST (1/15)
Length of Visible Light 10h 04m
Length of Day
8h 56m
Waning Gibbous, 57% of the Moon is Illuminated
Jan 15
Waning Gibbous
Jan 16
Last Quarter
Jan 23
New
Jan 30
First Quarter
Feb 7
Full

Hourly Weather History & Observations

Time (CST) Temp. Windchill Dew Point Humidity Pressure Visibility Wind Dir Wind Speed Gust Speed Precip Events Conditions
12:53 AM 21.0 °F 11.4 °F 17.1 °F 85% 29.96 in 10.0 mi SE 8.1 mph - N/A   Clear
1:53 AM 21.0 °F 11.4 °F 17.1 °F 85% 29.96 in 10.0 mi SE 8.1 mph - N/A   Mostly Cloudy
2:53 AM 21.0 °F 10.6 °F 16.0 °F 81% 29.95 in 10.0 mi SSE 9.2 mph - N/A   Scattered Clouds
3:53 AM 21.9 °F 10.4 °F 16.0 °F 78% 29.92 in 10.0 mi SE 11.5 mph - N/A   Partly Cloudy
4:53 AM 24.1 °F 13.1 °F 18.0 °F 77% 29.88 in 10.0 mi SE 11.5 mph - N/A   Clear
5:53 AM 25.0 °F 13.6 °F 18.0 °F 75% 29.86 in 10.0 mi SE 12.7 mph 23.0 mph N/A   Clear
6:53 AM 27.0 °F 14.3 °F 17.1 °F 66% 29.83 in 10.0 mi SE 17.3 mph 21.9 mph N/A   Clear
7:53 AM 28.0 °F 16.5 °F 17.1 °F 63% 29.80 in 10.0 mi SE 15.0 mph 21.9 mph N/A   Clear
8:53 AM 27.0 °F 14.3 °F 17.1 °F 66% 29.79 in 10.0 mi SSE 17.3 mph 24.2 mph N/A   Clear
9:53 AM 28.9 °F 16.1 °F 18.0 °F 64% 29.77 in 10.0 mi SSE 19.6 mph 26.5 mph N/A   Clear
10:53 AM 30.0 °F 16.3 °F 19.0 °F 64% 29.74 in 10.0 mi SSE 24.2 mph 38.0 mph N/A   Clear
11:53 AM 32.0 °F 19.5 °F 21.0 °F 64% 29.70 in 10.0 mi SSE 21.9 mph 31.1 mph N/A   Clear
12:53 PM 33.1 °F 21.9 °F 21.9 °F 64% 29.67 in 10.0 mi SSE 18.4 mph 26.5 mph N/A   Clear
1:53 PM 35.1 °F 23.5 °F 23.0 °F 61% 29.65 in 10.0 mi South 21.9 mph 28.8 mph N/A   Clear
2:53 PM 36.0 °F 26.3 °F 24.1 °F 62% 29.65 in 10.0 mi South 16.1 mph 24.2 mph N/A   Clear
3:53 PM 34.0 °F 24.2 °F 24.1 °F 67% 29.66 in 10.0 mi South 15.0 mph - N/A   Clear
4:53 PM 32.0 °F 26.4 °F 23.0 °F 69% 29.68 in 10.0 mi SW 5.8 mph - N/A   Clear
5:53 PM 27.0 °F 20.5 °F 19.9 °F 75% 29.71 in 10.0 mi SW 5.8 mph - N/A   Clear
6:53 PM 28.0 °F 20.0 °F 21.0 °F 75% 29.69 in 10.0 mi South 8.1 mph - N/A   Clear
7:53 PM 25.0 °F 17.1 °F 19.0 °F 78% 29.73 in 10.0 mi WSW 6.9 mph - N/A   Clear
8:53 PM 21.9 °F 17.2 °F 17.1 °F 82% 29.74 in 10.0 mi West 3.5 mph - N/A   Clear
9:53 PM 28.9 °F 18.2 °F 21.9 °F 75% 29.77 in 10.0 mi WNW 13.8 mph - N/A   Clear
10:29 PM 28.4 °F 16.6 °F 21.2 °F 74% 29.74 in 10.0 mi NW 16.1 mph 20.7 mph N/A   Mostly Cloudy
10:46 PM 28.4 °F 15.1 °F 17.6 °F 64% 29.76 in 10.0 mi NW 20.7 mph 31.1 mph N/A   Scattered Clouds
10:53 PM 27.0 °F 12.2 °F 16.0 °F 63% 29.81 in 10.0 mi NW 24.2 mph 33.4 mph N/A   Partly Cloudy
11:53 PM 21.9 °F 7.3 °F 14.0 °F 72% 29.85 in 10.0 mi NW 18.4 mph - N/A   Clear